Temperature
18 19 18 18 18 18 18 18 18 19 19 19 19 19 19 18 18 18 17 17 17 18 18 18 18 18 18 18 18 17 17 17 17 17 17 18 18 18 18 18 17 17 17
19 19 19 19 18 18 18 18 19 19 19 19 19 19 19 18 18 17 17 17 17 17 17 18 18 18 18 18 17 17 17 17 17 17 17 17 17 17 17 17 17 17 17
19 19 19 19 19 19 19 19 19 19 19 18 18 18 18 18 18 17 17 17 17 17 17 17 17 17 17 17 17 17 17 17 17 17 17 17 17 17 17 17 17 17 17
19 19 19 19 19 19 19 19 19 19 19 18 18 18 18 18 18 18 18 17 17 17 17 17 17 17 17 17 17 17 17 17 17 17 17 17 17 17 17 17 17 16 16
20 19 19 19 19 19 19 18 18 18 18 18 18 18 18 18 18 18 18 17 17 17 17 17 17 17 17 17 17 17 17 17 17 17 16 16 16 16 16 16 16 16 16
19 19 19 19 19 18 18 18 18 18 18 18 18 18 18 18 18 18 18 18 18 17 17 17 17 17 17 17 17 17 17 17 17 16 16 16 16 16 16 16 16 16 16
19 19 19 18 18 18 18 18 18 18 18 18 18 18 18 18 18 18 18 18 18 17 17 17 17 17 17 17 17 17 17 17 16 16 16 16 16 16 16 16 16 16 16
18 18 18 18 18 18 18 18 17 17 17 17 17 17 17 18 18 18 18 18 18 18 18 17 17 17 17 17 17 17 17 17 16 16 16 16 16 16 16 16 16 16 16
18 18 18 18 18 17 17 17 17 17 17 17 17 17 17 17 18 18 18 18 18 17 17 17 17 17 17 17 17 17 17 16 16 16 16 17 16 16 16 16 16 16 16
18 18 17 17 17 17 17 17 17 17 17 17 17 17 17 17 17 17 17 17 17 17 17 17 17 17 17 17 17 16 16 16 16 16 16 16 16 16 16 16 16 16 16
17 17 17 17 17 17 17 16 17 16 16 17 17 17 17 17 16 16 17 17 17 17 17 17 17 17 17 17 16 16 16 16 16 16 16 16 16 16 16 16 16 16 16
17 17 17 17 16 16 16 16 16 16 16 16 16 16 16 16 16 16 16 16 17 17 17 17 17 17 17 16 16 16 16 16 16 16 16 16 16 16 16 16 16 16 16
16 16 16 16 16 16 16 16 16 16 16 16 16 16 16 16 16 16 16 16 16 16 17 17 17 16 16 16 16 16 16 16 16 16 16 16 16 16 16 16 16 16 16
15 15 15 16 16 16 16 16 16 16 16 16 16 16 15 15 15 15 15 15 15 16 16 16 16 16 16 16 16 16 16 16 16 16 16 16 16 16 16 16 16 16 16
15 15 15 15 15 16 15 16 16 16 15 15 15 15 15 15 15 15 15 15 15 15 15 16 16 16 16 16 15 15 15 16 16 16 16 16 16 16 16 16 16 16 16
14 15 15 15 15 15 16 16 15 15 15 15 15 15 15 15 14 14 14 14 14 14 14 15 16 16 16 15 15 15 15 15 15 15 15 16 16 16 16 16 16 16 15
15 15 15 15 16 16 16 16 15 15 15 15 15 15 15 15 15 15 14 14 14 14 14 15 15 15 15 15 15 15 15 15 15 15 15 15 16 16 16 16 15 15 15
15 15 15 16 16 16 16 16 16 15 15 15 15 15 15 15 15 15 14 14 14 14 14 14 14 14 15 14 14 14 15 15 15 15 15 15 15 16 16 15 15 15 15
15 15 16 16 16 16 16 16 16 16 15 15 15 15 15 15 15 15 14 14 14 14 14 14 14 14 14 14 14 14 14 15 15 15 15 15 15 15 15 15 15 15 15
15 16 16 16 16 16 16 16 16 16 15 16 15 15 15 15 15 15 14 14 14 14 14 14 14 14 14 14 14 14 14 14 14 14 15 15 15 15 15 15 15 15 15
15 15 15 15 15 15 15 15 16 15 15 16 15 15 15 15 15 15 15 14 14 14 14 14 14 14 14 14 14 14 14 14 14 14 14 14 14 15 15 15 15 15 14
15 15 15 15 15 15 15 15 15 15 15 15 15 15 15 15 15 15 15 15 14 14 14 14 13 13 13 13 13 13 13 13 13 14 14 14 14 14 14 14 15 14 14
14 14 14 14 14 14 14 15 15 15 15 15 15 15 15 15 15 15 15 14 14 14 14 14 13 13 13 13 13 13 13 13 13 13 13 13 13 13 13 13 14 14 14
13 13 13 13 13 13 14 14 14 14 14 14 14 14 14 14 14 14 14 14 14 14 14 14 14 13 13 13 13 13 13 12 12 13 13 13 13 13 13 13 13 13 13
12 12 12 12 12 12 13 13 13 13 13 13 13 13 14 14 14 14 14 14 14 14 14 14 14 13 13 13 13 13 13 12 12 12 12 12 12 12 12 13 13 13 12
11 11 11 11 12 12 12 12 13 13 13 13 13 13 13 13 14 14 14 14 14 14 14 14 14 13 13 13 13 13 12 12 12 12 12 12 12 12 12 12 12 12 12
Wind_Speed
4 3 4 7 8 9 5 4 5 3 1 2 2 4 4 4 7 12 11 9 7 5 4 4 3 3 2 2 2 3 4 5 6 8 8 7 6 6 5 5 4 4 4
3 4 4 3 3 6 8 6 3 3 1 2 3 4 4 4 6 11 12 10 8 6 5 4 4 3 3 3 3 4 4 5 7 7 7 7 6 6 5 4 4 3 3
7 4 4 5 4 5 7 4 2 3 2 3 2 2 3 4 3 7 11 11 10 7 6 5 4 4 4 4 3 4 5 5 6 7 7 7 7 6 5 5 4 3 2
9 5 3 4 4 5 2 2 1 1 2 2 3 3 3 2 2 2 7 11 12 10 8 7 6 6 5 4 4 4 4 5 5 5 6 6 6 6 6 5 4 4 3
8 6 4 2 3 2 1 3 2 1 1 2 2 2 1 3 2 3 3 8 11 13 12 9 8 7 6 5 4 4 4 5 5 4 4 5 5 5 5 5 5 5 4
6 6 4 2 1 2 1 0 1 1 1 1 2 2 2 2 2 3 2 2 6 11 13 12 11 9 8 7 5 4 5 5 5 4 4 3 4 4 4 5 5 5 5
5 5 4 3 2 2 1 1 1 1 0 1 1 2 2 3 4 4 3 2 2 7 11 13 12 11 10 9 7 6 6 5 5 5 4 3 3 3 3 4 4 5 5
4 5 5 3 3 2 1 2 1 0 1 1 2 1 2 3 4 4 4 3 2 3 4 7 11 12 12 12 10 9 8 6 5 4 3 3 3 3 2 2 2 2 3
4 4 3 3 3 3 3 4 4 4 3 3 3 3 3 4 3 3 5 5 5 3 4 4 6 12 13 14 14 12 10 8 6 5 4 4 4 3 3 2 2 1 2
3 3 3 2 3 3 4 6 6 5 5 5 4 3 4 3 2 2 3 3 5 5 5 3 3 3 10 14 15 16 13 9 6 5 5 5 5 4 4 3 2 1 0
3 3 3 1 2 3 4 6 5 6 6 6 5 4 4 4 4 4 3 3 2 3 3 3 3 3 6 13 16 17 16 12 8 6 6 6 6 5 4 3 2 1 0
2 2 2 2 2 3 4 5 6 6 6 6 6 5 4 3 4 4 4 4 4 3 3 3 3 3 6 11 14 20 18 14 11 8 7 7 6 5 4 3 2 1 1
2 1 1 2 3 3 3 3 4 5 5 6 6 5 4 4 3 2 3 4 4 3 2 2 4 5 8 10 12 21 19 17 14 11 10 8 7 6 5 4 3 2 1
2 2 1 3 3 3 3 3 2 3 4 4 5 4 3 4 3 4 4 4 3 4 3 4 2 3 7 11 15 22 17 19 18 15 13 12 10 8 7 6 4 3 2
2 1 2 3 3 3 3 2 3 3 2 1 1 1 2 3 3 3 3 4 4 4 5 5 3 2 2 5 12 17 15 20 21 19 17 15 13 12 10 8 7 5 4
0 1 3 4 5 5 5 3 1 1 1 1 2 1 2 2 2 2 3 3 4 5 4 3 3 2 1 1 8 12 15 21 24 22 21 18 17 15 13 11 10 8 6
3 4 5 6 6 7 6 5 3 3 2 2 3 4 4 4 3 3 3 3 4 4 5 4 3 2 2 2 1 6 9 13 17 22 22 21 19 18 16 14 12 11 9
5 6 6 5 3 3 2 4 4 3 3 3 3 3 3 3 3 3 3 4 4 5 5 5 4 4 5 4 3 5 5 8 11 20 24 23 21 20 18 17 15 14 13
5 4 4 2 2 2 1 1 2 3 4 4 3 2 2 2 2 2 3 3 3 3 4 4 4 4 4 3 3 4 5 3 6 12 21 22 22 21 20 20 18 17 16
4 4 3 2 2 2 3 3 1 1 2 2 2 2 2 2 3 2 1 0 1 2 2 3 3 3 3 2 2 3 4 4 4 4 8 14 18 21 21 21 20 20 19
7 6 6 6 6 6 7 7 6 5 4 3 2 2 2 6 6 3 2 2 2 1 1 1 2 2 2 2 3 3 4 3 3 3 3 5 7 9 14 18 20 21 21
8 8 8 8 9 9 11 11 8 6 6 5 4 3 3 6 7 6 5 3 1 1 1 1 1 1 2 3 3 2 2 2 3 1 2 3 3 5 6 10 16 21 23
8 9 9 9 9 11 14 13 12 7 6 5 5 4 2 2 5 4 6 7 5 5 3 1 1 1 1 1 1 1 2 2 2 1 0 1 0 1 1 2 4 12 18
7 7 8 8 7 10 15 14 14 7 5 5 5 4 4 2 3 4 1 2 3 4 4 2 1 2 2 1 1 1 2 1 1 1 1 1 0 1 1 2 3 3 8
6 6 6 7 7 9 15 16 14 6 4 4 4 4 5 5 7 8 5 3 2 2 3 5 5 5 4 4 3 3 2 1 0 1 1 1 0 1 1 2 3 4 5
5 5 5 6 7 7 12 16 15 6 6 5 4 4 8 7 7 8 6 5 3 2 1 2 2 2 2 2 1 0 1 1 0 1 1 1 0 0 2 1 1 2 3
Wind_Direction
202 169 178 167 184 181 175 243 243 184 125 68 34 51 82 99 108 115 127 127 123 118 119 123 127 128 140 148 149 158 161 165 161 156 155 151 144 137 129 122 112 101 87
188 156 188 145 199 172 172 219 227 125 131 87 57 50 26 49 105 127 139 139 134 128 126 128 130 131 140 160 174 173 169 173 172 169 166 165 161 157 152 146 137 125 107
183 160 194 156 198 192 186 218 196 133 142 124 125 88 78 23 357 123 140 152 147 134 128 126 126 122 119 121 141 163 166 173 179 181 180 180 180 179 176 172 169 166 151
180 162 174 153 183 181 183 124 24 118 172 169 171 176 146 140 282 113 169 159 153 145 138 132 126 122 119 118 123 140 155 163 171 180 186 188 190 191 192 191 196 201 198
170 144 143 143 173 140 150 162 188 198 207 171 168 151 191 166 147 254 217 151 147 151 150 149 145 140 136 131 132 141 151 155 158 167 174 183 190 196 203 208 216 219 221
146 128 124 135 106 118 121 303 164 116 25 50 280 196 187 195 216 255 335 118 164 163 158 163 165 163 158 149 144 150 155 155 153 154 160 172 185 199 207 215 222 227 230
117 115 129 135 99 106 154 251 270 165 211 330 324 331 304 253 246 204 207 251 224 150 161 173 178 171 167 164 154 153 153 154 148 145 146 153 170 194 208 222 229 229 230
138 131 134 136 138 144 204 257 281 156 209 222 198 214 298 301 276 242 197 196 266 159 196 192 178 170 172 165 165 152 144 145 147 148 153 153 149 154 174 199 213 222 229
133 128 136 147 174 182 207 227 229 215 221 243 228 190 194 232 269 270 226 196 208 206 207 228 195 180 169 155 153 149 144 143 146 151 152 155 155 155 162 176 190 201 226
125 134 134 178 208 208 215 222 224 213 212 228 248 237 230 218 191 281 294 237 205 206 208 212 217 187 162 149 157 158 156 155 159 166 166 160 158 153 147 143 144 154 239
108 124 137 162 234 235 229 230 232 216 205 215 224 232 245 260 243 220 255 284 270 223 206 212 181 195 166 150 155 164 165 167 169 175 174 170 165 160 158 152 147 146 290
96 97 143 165 229 242 244 243 233 226 213 217 224 226 222 223 230 228 227 242 255 255 221 208 185 189 183 164 169 171 172 174 177 177 176 174 172 169 161 158 163 177 280
118 134 179 211 224 230 242 247 242 234 221 220 221 223 225 228 233 230 231 242 249 261 254 221 199 196 194 177 170 173 178 181 184 186 184 180 178 180 184 191 199 217 246
130 154 203 239 235 229 242 230 245 254 240 229 220 214 212 230 228 215 211 220 245 256 247 242 229 217 201 188 182 180 186 189 191 193 194 193 192 194 197 203 208 212 224
136 161 224 229 227 212 225 228 213 248 241 247 218 257 221 223 224 226 221 206 202 230 245 233 227 238 221 209 189 191 191 196 197 199 200 200 201 202 205 208 209 211 217
27 264 268 245 216 199 205 204 228 249 265 220 151 263 269 243 230 220 221 222 207 209 243 238 221 228 192 233 203 202 204 200 201 202 202 203 204 206 208 211 213 215 220
247 247 252 252 219 197 193 169 201 189 239 247 207 210 220 225 216 224 227 226 221 206 229 253 228 220 202 233 228 250 230 195 201 204 204 204 205 207 210 213 216 219 224
267 263 252 246 199 153 164 156 181 182 222 248 242 215 219 213 208 220 218 225 226 217 217 242 242 225 221 221 211 252 252 211 202 207 206 207 207 209 212 215 219 222 226
278 276 263 264 116 132 154 150 183 212 223 225 232 227 226 190 198 200 207 226 232 239 221 226 243 232 225 215 217 243 256 258 237 213 206 209 210 211 214 217 221 224 228
319 321 332 8 59 65 33 4 336 287 279 257 230 226 219 120 84 52 44 55 240 260 247 235 245 243 227 209 197 223 246 245 252 233 209 211 215 218 219 222 225 228 231
5 10 14 24 35 43 31 14 355 339 323 313 303 272 136 118 113 104 79 27 12 340 289 259 261 250 225 198 213 210 227 248 253 233 213 212 206 212 222 229 231 233 233
18 22 23 35 45 36 24 21 6 343 331 329 323 331 147 166 165 174 184 197 211 317 339 337 287 272 251 224 215 207 213 229 253 256 211 228 198 210 220 221 231 231 233
35 35 35 44 53 33 20 12 2 332 308 307 309 313 312 119 151 196 205 211 221 222 227 320 356 331 325 274 172 196 211 212 221 308 62 267 276 237 277 278 264 233 233
44 43 38 42 50 35 19 9 353 322 299 300 305 320 333 21 48 26 18 208 200 184 200 201 68 56 51 60 104 149 166 144 101 22 104 244 259 244 271 310 316 260 235
41 50 39 36 38 30 18 11 0 331 331 329 339 17 33 56 41 29 5 351 60 113 144 123 102 97 89 81 90 86 90 95 321 254 162 192 310 312 287 263 248 236 244
33 55 56 47 39 29 21 16 9 359 356 350 1 47 58 59 38 24 8 11 29 20 110 141 153 173 174 156 165 159 153 161 300 306 181 178 289 3 324 300 249 232 255
Height
1546 1547 1548 1549 1549 1550 1552 1553 1554 1557 1558 1559 1560 1560 1561 1561 1561 1559 1559 1559 1559 1559 1560 1560 1561 1562 1562 1563 1564 1565 1566 1567 1568 1569 1570 1571 1572 1573 1574 1574 1575 1575 1576
1544 1546 1548 1549 1550 1552 1552 1553 1555 1556 1557 1558 1559 1560 1560 1561 1561 1559 1559 1559 1559 1559 1559 1560 1560 1561 1562 1562 1563 1564 1565 1567 1568 1569 1570 1571 1572 1572 1573 1574 1574 1575 1575
1543 1545 1547 1547 1549 1551 1552 1553 1555 1556 1557 1558 1559 1560 1560 1561 1561 1560 1559 1558 1559 1559 1559 1559 1560 1560 1561 1562 1562 1563 1564 1565 1566 1568 1569 1570 1571 1572 1572 1573 1573 1574 1574
1541 1543 1545 1546 1548 1550 1551 1552 1554 1555 1557 1557 1558 1559 1560 1560 1560 1560 1559 1558 1558 1558 1559 1559 1559 1560 1560 1561 1562 1562 1563 1564 1565 1566 1567 1568 1569 1570 1571 1571 1572 1572 1572
1539 1541 1542 1545 1546 1548 1550 1551 1553 1554 1556 1557 1558 1558 1559 1559 1559 1560 1560 1559 1558 1558 1558 1558 1559 1559 1559 1560 1560 1561 1562 1563 1564 1565 1566 1566 1567 1568 1569 1570 1570 1571 1571
1536 1538 1540 1542 1544 1546 1548 1549 1551 1553 1554 1555 1556 1557 1558 1558 1558 1559 1559 1559 1559 1558 1558 1558 1558 1558 1559 1559 1559 1560 1560 1561 1562 1563 1564 1564 1565 1566 1567 1568 1568 1569 1569
1533 1535 1537 1539 1541 1543 1545 1547 1549 1550 1551 1553 1555 1555 1556 1556 1557 1557 1557 1558 1559 1558 1557 1557 1558 1557 1558 1558 1558 1559 1559 1560 1560 1561 1562 1562 1563 1564 1565 1566 1566 1567 1567
1530 1532 1534 1536 1538 1540 1542 1544 1546 1547 1549 1551 1552 1553 1554 1555 1554 1555 1555 1556 1557 1557 1557 1557 1557 1557 1557 1557 1557 1558 1558 1559 1559 1560 1560 1561 1561 1562 1563 1564 1564 1565 1565
1525 1527 1530 1533 1535 1537 1539 1541 1542 1544 1545 1547 1549 1551 1551 1550 1551 1552 1552 1553 1554 1555 1555 1556 1557 1556 1555 1555 1556 1556 1557 1558 1558 1559 1559 1559 1560 1561 1561 1562 1562 1563 1563
1521 1523 1526 1529 1532 1534 1535 1537 1538 1540 1542 1543 1545 1546 1548 1549 1550 1549 1550 1550 1551 1552 1553 1554 1555 1555 1555 1554 1554 1555 1556 1557 1557 1558 1558 1558 1559 1559 1560 1560 1561 1561 1561
1517 1519 1522 1525 1528 1530 1531 1533 1535 1536 1537 1539 1540 1542 1543 1545 1545 1546 1547 1548 1548 1549 1550 1550 1551 1553 1554 1552 1552 1553 1554 1555 1556 1556 1557 1557 1557 1558 1559 1559 1559 1559 1559
1513 1516 1518 1521 1524 1526 1528 1530 1531 1533 1534 1535 1536 1538 1539 1540 1541 1543 1544 1544 1545 1546 1546 1547 1548 1549 1550 1550 1550 1551 1552 1553 1554 1554 1555 1555 1556 1557 1557 1557 1558 1558 1558
1509 1513 1516 1518 1521 1523 1525 1527 1528 1530 1530 1531 1532 1533 1535 1536 1538 1539 1540 1540 1541 1542 1543 1543 1544 1545 1546 1547 1547 1548 1549 1550 1551 1552 1553 1553 1554 1555 1555 1556 1556 1556 1556
1507 1510 1513 1516 1518 1521 1523 1525 1526 1527 1528 1528 1529 1530 1531 1532 1533 1535 1536 1537 1537 1538 1538 1539 1540 1541 1542 1543 1543 1545 1546 1547 1548 1549 1550 1551 1551 1552 1553 1554 1554 1554 1554
1506 1509 1511 1514 1517 1519 1521 1523 1524 1525 1525 1526 1527 1527 1528 1528 1529 1530 1531 1533 1534 1533 1533 1535 1535 1536 1537 1539 1540 1541 1542 1544 1545 1546 1547 1547 1548 1549 1550 1551 1552 1552 1552
1506 1508 1510 1513 1515 1517 1519 1521 1522 1523 1524 1524 1524 1525 1525 1526 1526 1527 1527 1528 1529 1530 1529 1530 1531 1532 1533 1534 1535 1537 1538 1539 1541 1542 1543 1544 1545 1546 1547 1548 1549 1549 1550
1507 1509 1510 1512 1515 1517 1518 1519 1521 1521 1522 1522 1522 1523 1523 1523 1523 1524 1524 1524 1525 1525 1525 1526 1527 1528 1528 1529 1530 1532 1534 1535 1537 1538 1540 1541 1542 1543 1544 1545 1546 1547 1547
1508 1509 1510 1512 1514 1516 1517 1518 1519 1520 1520 1521 1521 1522 1522 1522 1522 1521 1521 1521 1521 1522 1522 1522 1522 1523 1524 1525 1526 1527 1530 1531 1532 1534 1535 1537 1538 1540 1541 1542 1543 1544 1544
1508 1509 1510 1512 1513 1515 1516 1517 1518 1518 1519 1519 1520 1520 1520 1520 1520 1520 1519 1519 1519 1519 1519 1518 1518 1519 1519 1520 1521 1522 1524 1526 1527 1529 1531 1532 1534 1535 1537 1538 1539 1540 1541
1508 1509 1510 1511 1512 1513 1514 1515 1516 1517 1518 1518 1518 1519 1519 1518 1518 1518 1518 1517 1517 1516 1516 1515 1515 1515 1515 1516 1516 1517 1519 1521 1523 1524 1525 1527 1529 1531 1532 1534 1535 1536 1537
1508 1509 1509 1510 1510 1511 1511 1512 1513 1515 1515 1516 1516 1517 1517 1517 1517 1517 1516 1516 1515 1514 1514 1513 1513 1512 1512 1512 1513 1513 1514 1516 1518 1519 1520 1522 1523 1525 1527 1528 1530 1531 1532
1508 1508 1509 1509 1509 1509 1509 1510 1511 1512 1513 1513 1514 1514 1515 1515 1515 1515 1515 1515 1514 1513 1512 1512 1512 1511 1510 1510 1510 1510 1511 1512 1513 1516 1516 1518 1519 1520 1521 1523 1524 1525 1527
1508 1508 1508 1508 1508 1508 1508 1508 1508 1509 1510 1510 1511 1512 1513 1513 1513 1514 1513 1514 1513 1513 1512 1512 1511 1510 1509 1509 1508 1508 1509 1509 1510 1511 1512 1513 1514 1515 1516 1517 1518 1519 1521
1510 1509 1508 1508 1507 1507 1506 1506 1506 1506 1507 1508 1509 1509 1509 1510 1511 1511 1512 1512 1512 1512 1512 1511 1510 1510 1509 1508 1508 1508 1508 1508 1508 1509 1509 1510 1510 1511 1512 1513 1513 1515 1516
1512 1511 1510 1509 1508 1507 1506 1505 1504 1504 1505 1505 1506 1507 1507 1507 1508 1509 1510 1511 1511 1511 1511 1511 1510 1510 1509 1509 1508 1508 1507 1508 1508 1508 1508 1508 1508 1509 1509 1510 1510 1511 1512
1515 1514 1513 1511 1510 1508 1507 1505 1504 1504 1504 1504 1504 1505 1505 1505 1506 1507 1508 1509 1510 1510 1511 1510 1510 1510 1509 1509 1508 1508 1508 1508 1508 1508 1508 1508 1508 1508 1508 1508 1508 1509 1509